Powrót do katalogu

STARLINK-32602

AktywnyŁącznośćVLEO
NORAD 62181·PAYLOAD·🇺🇸 United States

Wystrzelony Nov 30, 2024 z Vandenberg Space Force Base

Loading…

Następne Przeloty (najbliższe 24 godziny)

TLE

ŚwieżeSource: CelesTrak SupGP

Epoka: Sep 14, 2026, 21:40 UTC

1 62181C 24225U   26257.90326389  .00005270  00000+0  18334-3 0  2577
2 62181  70.0014  35.6818 0003475 275.3219 309.7505 15.29572247    15

Śledź STARLINK-32602 w czasie rzeczywistym z AllMySat

Download on the App Store